Regional Weather Roundup
Issued by NWS

Home | Current Version | Previous Version | Text Only | Print | Product List | Glossary Off
Versions: 1 2 3 4 5 6 7 8 9 10 11 12 13 14 15 16 17 18 19 20 21 22 23 24 25 26 27 28 29 30 31 32 33 34 35 36 37 38 39 40 41 42 43 44 45 46 47 48 49 50

000
ASUS43 KDTX 290610
RWRMI
MICHIGAN HOURLY REGIONAL WEATHER ROUNDUP
NATIONAL WEATHER SERVICE DETROIT/PONTIAC MI
200 AM EDT FRI AUG 29 2014

NOTE: "FAIR" INDICATES FEW OR NO CLOUDS BELOW 12,000 FEET WITH NO
SIGNIFICANT WEATHER AND/OR OBSTRUCTION TO VISIBILITY.

MIZ047>049-052>055-059>063-066>070-074>076-081>083-290700-
SOUTHEAST LOWER MICHIGAN

CITY           SKY/WX    TMP DP  RH WIND       PRES   REMARKS
ADRIAN           N/A     60  55  83 SE5       30.14S
6HR MIN TEMP:  60; 6HR MAX TEMP:  70;

ALMA             N/A     59  55  87 SE3       30.13S
ANN ARBOR        N/A     57  53  86 S3        30.14F
BAD AXE          N/A     52  50  95 CALM      30.16S
6HR MIN TEMP:  48; 6HR MAX TEMP:  60;

DETROIT CITY     N/A     64  53  67 SE5       30.15F
6HR MIN TEMP:  63; 6HR MAX TEMP:  70;

DETROIT        MOCLDY    61  52  72 E6        30.14F
6HR MIN TEMP:  61; 6HR MAX TEMP:  67;

FLINT            N/A     59  50  72 SE5       30.14F
6HR MIN TEMP:  57; 6HR MAX TEMP:  69;

GROSSE ILE       N/A     61  55  82 E5        30.13F
HILLSDALE        N/A     61  58  89 SE6       30.13F
HOWELL           N/A     58  55  89 SE6       30.14S
6HR MIN TEMP:  57; 6HR MAX TEMP:  64;


CITY           SKY/WX    TMP DP  RH WIND       PRES   REMARKS
JACKSON          N/A     61  56  83 SE6       30.13S
6HR MIN TEMP:  61; 6HR MAX TEMP:  68;

LAMBERTVILLE     N/A     57  54  88 CALM      30.15S
LANSING          N/A     62  55  77 SE7       30.13S
6HR MIN TEMP:  60; 6HR MAX TEMP:  67;

LAPEER         NOT AVBL
MASON            N/A     58  55  91 SE5       30.13S
MONROE           N/A     55  52  88 CALM      30.12F
MT. CLEMENS    MOCLDY    61  51  70 E5        30.14F
6HR MIN TEMP:  59; 6HR MAX TEMP:  66;

PONTIAC          N/A     60  49  66 E3        30.14F
6HR MIN TEMP:  59; 6HR MAX TEMP:  69;

PORT HOPE        N/A     56  50  80 VRB5      30.14S
6HR MIN TEMP:  54; 6HR MAX TEMP:  63;

PORT HURON       N/A     50  50 100 CALM      30.17S
TRI CITIES       N/A     60  51  72 SE7       30.15S
6HR MIN TEMP:  59; 6HR MAX TEMP:  65;

YPSILANTI        N/A     62  54  74 E5        30.14F
6HR MIN TEMP:  60; 6HR MAX TEMP:  70;

$$
MIZ043>046-050>051-056>058-064>065-071>073-077>080-290700-
SOUTHWEST LOWER MICHIGAN

CITY           SKY/WX    TMP DP  RH WIND       PRES   REMARKS
BATTLE CREEK     N/A     64  56  75 SE8       30.10F
6HR MIN TEMP:  64; 6HR MAX TEMP:  71;

BENTON HARBOR  LGT RAIN  65  60  84 E6        30.05F
6HR MIN TEMP:  65; 6HR MAX TEMP:  72; 6HR PCP: TRACE;

BIG RAPIDS     MOCLDY    61  55  81 CALM      30.10F
6HR MIN TEMP:  60; 6HR MAX TEMP:  65;

COLDWATER        N/A     64  57  78 SE9       30.11F
6HR MIN TEMP:  64; 6HR MAX TEMP:  73;

HOLLAND          N/A     64  54  69 E7        30.07F
6HR MIN TEMP:  63; 6HR MAX TEMP:  71;

GRAND RAPIDS     N/A     62  55  77 E8        30.10F
6HR MIN TEMP:  61; 6HR MAX TEMP:  68;

KALAMAZOO        N/A     65  57  75 SE3       30.10F
6HR MIN TEMP:  64; 6HR MAX TEMP:  72;

MARSHALL         N/A     60  56  87 E6        30.11F
MUSKEGON         N/A     65  50  58 E10       30.07F
6HR MIN TEMP:  64; 6HR MAX TEMP:  70;

$$
MIZ016>042-290700-
NORTHERN LOWER MICHIGAN

CITY           SKY/WX    TMP DP  RH WIND       PRES   REMARKS
ALPENA           N/A     50  46  86 CALM      30.15S
6HR MIN TEMP:  48; 6HR MAX TEMP:  58;

BEAVER ISLAND    N/A     54  53  95 E3        30.09F
6HR MIN TEMP:  51; 6HR MAX TEMP:  60;

CADILLAC         N/A     61  52  71 SE3       30.11R
CHARLEVOIX       N/A     59  52  78 SE5       30.13S
6HR MIN TEMP:  56; 6HR MAX TEMP:  64;

FRANKFORT      MOCLDY    64  52  65 SE6       30.08S
GAYLORD          N/A     53  50  89 SE6       30.13F
6HR MIN TEMP:  53; 6HR MAX TEMP:  63;

GRAYLING         N/A     54  53  95 CALM      30.14S
6HR MIN TEMP:  50; 6HR MAX TEMP:  62;

HARBOR SPRINGS   N/A     56  51  82 NE3       30.11S
HOUGHTON LAKE    N/A     57  51  80 SE7       30.14R
6HR MIN TEMP:  52; 6HR MAX TEMP:  64;

MANISTEE       MOCLDY    61  54  77 E5        30.08F
OSCODA           N/A     52  49  90 CALM      30.15S
PELLSTON         N/A     47  46  97 CALM      30.12S
6HR MIN TEMP:  47; 6HR MAX TEMP:  60;

TRAVERSE CITY    N/A     59  53  80 CALM      30.08F
6HR MIN TEMP:  58; 6HR MAX TEMP:  66;

$$
MIZ007>008-015-290700-
EASTERN UPPER MICHIGAN

CITY           SKY/WX    TMP DP  RH WIND       PRES   REMARKS
KINROSS          N/A     52  52 100 SE3       30.12S
6HR MIN TEMP:  52; 6HR MAX TEMP:  63;

MACKINAC ISLAN   N/A     57  51  80 S8        30.11S
6HR MIN TEMP:  52; 6HR MAX TEMP:  59;

NEWBERRY         N/A     51  49  92 S6        30.09F
S. S. MARIE      N/A     51  48  89 E3        30.11F
6HR MIN TEMP:  50; 6HR MAX TEMP:  63;

$$
MIZ004>006-011>014-085-290700-
CENTRAL UPPER MICHIGAN

CITY           SKY/WX    TMP DP  RH WIND       PRES   REMARKS
MANISTIQUE       N/A     53  52  95 CALM      30.08S
ESCANABA         N/A     63  54  72 SE7       30.06F
6HR MIN TEMP:  63; 6HR MAX TEMP:  63;

MENOMINEE      CLOUDY    64  55  72 S8        30.05S
6HR MIN TEMP:  63; 6HR MAX TEMP:  64;

SAWYER-GWINN     N/A     56  52  88 S7        30.06F
6HR MIN TEMP:  55; 6HR MAX TEMP:  62;

$$
MIZ001>003-009>011-084-290700-
WESTERN UPPER MICHIGAN

CITY           SKY/WX    TMP DP  RH WIND       PRES   REMARKS
IRON MOUNTAIN  MOCLDY    59  55  87 SE5       30.05S
6HR MIN TEMP:  58; 6HR MAX TEMP:  65;

HOUGHTON         N/A     58  55  90 S5        30.00F
6HR MIN TEMP:  55; 6HR MAX TEMP:  60;

COPPER HARBOR    N/A     60  56  86 SW9       29.99F
6HR MIN TEMP:  59; 6HR MAX TEMP:  61;

$$

ABBREVIATIONS USED IN REMARKS
   TC - TEMPERATURE IN CELSIUS
  WCI - WIND CHILL INDEX
   HX - HEAT INDEX
  VSB - VISIBILITY




USA.gov is the U.S. government's official web portal to all federal, state and local government web resources and services.